Flag for U.S.A. Weather past 2 weeks in Hialeah, Florida, U.S.A.

Now
82 °F

Sunny.


Feels Like: 84 °F
Forecast: 66 / 84 °F
Wind: 10 mph from Southeast

Location: Opa Locka Airport


UV Index: 7 (High)

Visibility: 10 mi


Pressure: 29.89 "Hg

Humidity: 56%

Dew point: 65 °F

Location of HialeahLocation

Historic Weather in Hialeah

°F

Hialeah temperature yesterday

Maximum temperature yesterday: 83 °F (at 3:53 PM)
Minimum temperature yesterday: 65 °F (at 6:53 AM)
Average temperature yesterday: 74 °F

Past Weeks' High & Low Weather Summary

 TemperatureHumidityPressure
High88 °F (Apr 15, 1:53 PM)100% (Apr 19, 8:53 AM)30.27 "Hg (Apr 19, 8:53 AM)
Low62 °F (Apr 21, 6:53 AM)33% (Apr 10, 11:53 AM)29.80 "Hg (Apr 8, 5:53 PM)
Average75 °F68%30.02 "Hg
* Reported Apr 8 5:53 PM — Apr 23 5:53 PM, Hialeah, Weather by CustomWeather, © 2014

Note: Actual official high and low records may vary slightly from our data, if they occured in-between our weather recording intervals... More about our weather records

Advertising

Historic Weather Conditions — Data for Previous 24 hours

 ConditionsComfort  
Time TempWeatherWind HumidityBarometerVisibility
5:53 PM
Apr 23
83 °FPassing clouds.12 mph53%29.88 "Hg10 mi
3:53 PM84 °FSunny.7 mph41%29.90 "Hg10 mi
2:53 PM84 °FSunny.N/A43%29.92 "Hg10 mi
1:53 PM82 °FSunny.3 mph46%29.93 "Hg10 mi
12:53 PM80 °FSunny.3 mph51%29.95 "Hg10 mi
11:53 AM78 °FSunny.7 mph52%29.97 "Hg10 mi
10:53 AM75 °FSunny.8 mph64%29.98 "Hg10 mi
9:53 AM73 °FSunny.7 mph69%29.97 "Hg10 mi
8:53 AM70 °FSunny.5 mph76%29.96 "Hg10 mi
7:53 AM67 °FSunny.7 mph81%29.95 "Hg10 mi
6:53 AM65 °FClear.6 mph87%29.93 "Hg10 mi
5:53 AM66 °FClear.7 mph84%29.90 "Hg10 mi
4:53 AM66 °FClear.5 mph84%29.90 "Hg10 mi
3:53 AM68 °FPassing clouds.9 mph78%29.90 "Hg10 mi
2:53 AM69 °FOvercast.13 mph79%29.90 "Hg10 mi
1:53 AM71 °FMostly cloudy.9 mph73%29.91 "Hg10 mi
12:53 AM72 °FClear.9 mph73%29.91 "Hg10 mi
11:53 PM
Apr 22
72 °FClear.10 mph73%29.91 "Hg10 mi
10:53 PM73 °FMostly cloudy.8 mph74%29.91 "Hg10 mi
9:53 PM75 °FPassing clouds.7 mph66%29.90 "Hg10 mi
8:53 PM76 °FPassing clouds.6 mph74%29.88 "Hg10 mi
7:53 PM77 °FPassing clouds.9 mph66%29.87 "Hg10 mi
Weather by CustomWeather, © 2014

See weather overview